CW5557 Weather Reports


Display with metric or nautical units.
time (UTC)temp
F
wind
direction
speed
MPH
gust
MPH
rain 1hr
in
rain 24hr
in
rain mn
in
humidity
%
barometer
mb
20170728064653 64 73 2.0 3.0 0.00 0.10 0.00 93 1016.9
20170728063653 64 59 3.0 3.0 0.00 0.10 0.00 93 1016.9
20170728061653 64 63 4.0 6.0 0.00 0.10 0.00 93 1017.1
20170728060653 65 45 3.0 6.0 0.00 0.10 0.00 93 1017.1
20170728054653 65 90 1.0 3.0 0.00 0.10 0.00 93 1017.4
20170728053656 65 99 1.0 2.0 0.00 0.10 0.00 93 1017.6
20170728051653 65 48 0.0 2.0 0.00 0.10 0.00 93 1017.6
20170728044653 65 96 1.0 2.0 0.00 0.10 0.00 93 1018.5
20170728043653 65 126 1.0 5.0 0.00 0.10 0.00 93 1018.5
20170728041653 65 67 1.0 5.0 0.02 0.10 0.00 93 1018.5
20170728040655 65 108 1.0 3.0 0.09 0.10 0.00 93 1018.5
20170728034654 65 83 1.0 5.0 0.09 0.10 0.10 93 1018.5
20170728033654 66 91 1.0 3.0 0.09 0.10 0.10 93 1018.6
20170728031655 66 153 0.0 3.0 0.09 0.09 0.09 93 1018.6
20170728030653 66 125 0.0 3.0 0.00 0.01 0.01 93 1018.6
20170728024654 66 125 0.0 2.0 0.00 0.01 0.01 93 1018.6
20170728023656 66 140 0.0 2.0 0.00 0.01 0.01 93 1018.6
20170728021654 66 140 0.0 1.0 0.01 0.02 0.01 93 1017.8
20170728020655 66 140 0.0 3.0 0.01 0.02 0.01 93 1017.8
20170728014653 66 140 0.0 2.0 0.01 0.02 0.01 93 1017.8
20170728013654 66 140 0.0 3.0 0.01 0.02 0.01 93 1017.8
20170728011657 66 140 0.0 1.0 0.00 0.01 0.00 92 1017.8
20170728010653 66 140 0.0 1.0 0.00 0.01 0.00 92 1017.6
20170728004653 66 140 0.0 1.0 0.00 0.01 0.00 92 1017.4
20170728003653 66 140 0.0 2.0 0.00 0.01 0.00 92 1017.0
20170728000657 66 140 0.0 1.0 0.00 0.01 0.00 92 1017.0
20170727231654 68 162 0.0 3.0 0.00 0.01 0.00 92 1017.0
20170727230654 68 161 0.0 2.0 0.00 0.01 0.00 92 1017.0
20170727224653 68 161 0.0 1.0 0.00 0.01 0.00 91 1016.8
20170727223654 68 161 0.0 1.0 0.00 0.01 0.00 91 1016.8
20170727221654 69 161 0.0 1.0 0.00 0.01 0.00 91 1016.8
20170727220654 69 161 0.0 3.0 0.00 0.01 0.00 90 1016.8
20170727214654 70 202 0.0 2.0 0.00 0.01 0.00 91 1016.7
20170727213654 70 180 1.0 3.0 0.00 0.01 0.00 90 1016.4
20170727210654 71 206 1.0 3.0 0.00 0.01 0.00 88 1016.4
20170727204654 71 213 2.0 6.0 0.00 0.01 0.00 88 1016.3
20170727203653 71 182 1.0 7.0 0.00 0.01 0.00 88 1016.3
20170727201655 71 214 3.0 7.0 0.00 0.01 0.00 86 1016.3
20170727200653 71 215 2.0 6.0 0.00 0.01 0.00 86 1016.3
20170727194654 70 180 2.0 5.0 0.00 0.01 0.00 89 1016.3
20170727193654 70 168 1.0 3.0 0.00 0.01 0.00 89 1016.4
20170727191657 71 209 1.0 6.0 0.00 0.01 0.00 88 1016.9
20170727190653 70 180 1.0 6.0 0.00 0.01 0.00 88 1016.9
20170727184654 71 185 1.0 6.0 0.00 0.01 0.00 86 1016.9
20170727183653 72 195 1.0 6.0 0.00 0.01 0.00 86 1017.7
20170727181654 71 111 2.0 3.0 0.00 0.01 0.00 85 1017.7
20170727180653 71 183 1.0 9.0 0.00 0.01 0.00 84 1017.7
20170727174653 72 227 1.0 6.0 0.00 0.01 0.00 84 1017.7
20170727173655 73 177 2.0 9.0 0.00 0.01 0.00 82 1018.2
20170727171654 72 163 2.0 3.0 0.00 0.01 0.00 83 1018.2
20170727170656 71 150 1.0 7.0 0.00 0.01 0.00 83 1018.2
20170727154657 67 181 1.0 5.0 0.00 0.01 0.00 92 1019.1
20170727153656 67 192 0.0 7.0 0.00 0.01 0.00 92 1019.2
20170727141654 67 216 1.0 3.0 0.00 0.01 0.00 93 1019.4
20170727140655 66 159 1.0 7.0 0.00 0.01 0.00 93 1019.4
20170727134655 66 145 1.0 7.0 0.00 0.01 0.00 93 1019.1
20170727133654 66 144 1.0 3.0 0.00 0.01 0.00 93 1019.1
20170727131653 65 183 1.0 3.0 0.00 0.01 0.00 93 1019.1
20170727130653 65 215 1.0 3.0 0.00 0.01 0.00 93 1019.1
20170727124653 65 184 0.0 3.0 0.00 0.01 0.00 93 1017.7
20170727123654 64 170 2.0 5.0 0.00 0.01 0.00 93 1017.7
20170727121653 64 108 2.0 6.0 0.00 0.01 0.00 93 1017.7
20170727120653 64 134 2.0 5.0 0.00 0.01 0.00 93 1017.7
20170727114655 64 137 1.0 3.0 0.00 0.01 0.00 93 1017.7
20170727113653 64 103 1.0 7.0 0.00 0.01 0.00 93 1017.7
20170727111654 64 82 2.0 5.0 0.00 0.01 0.00 93 1017.7
20170727094653 63 52 2.0 5.0 0.00 0.01 0.00 93 1017.7
20170727093654 63 63 2.0 3.0 0.00 0.01 0.00 93 1017.7
20170727091655 62 155 0.0 3.0 0.00 0.01 0.00 93 1017.6
20170727081653 63 155 0.0 1.0 0.00 0.01 0.00 93 1018.0
20170727080657 63 155 0.0 1.0 0.00 0.01 0.00 93 1018.0
20170727074655 63 155 0.0 1.0 0.00 0.01 0.00 93 1018.0
20170727073653 64 155 0.0 2.0 0.00 0.01 0.00 93 1018.0
20170727071653 64 155 0.0 2.0 0.00 0.01 0.00 93 1018.0
20170727070654 64 155 0.0 5.0 0.00 0.01 0.00 93 1017.8